{"data":{"norad_id":61252,"epoch":"2026-09-21T11:26:13.488864Z","epoch_age_seconds":107667,"freshness":"FRESH","line1":"1 61252U 24175K   26264.47654501  .00000507  00000+0  90484-5 0  9998","line2":"2 61252  53.1607 171.3532 0001627  64.2338 295.8848 15.69706758115289","mean_motion":15.69706758,"eccentricity":0.0001627,"inclination_deg":53.1607,"raan_deg":171.3532,"arg_perigee_deg":64.2338,"mean_anomaly_deg":295.8848,"bstar":9.0484e-6,"rev_number":11528,"period_min":91.736879685397,"perigee_km":358.63977585715,"apogee_km":360.8322797404,"semimajor_km":6737.8730277988,"source":"CELESTRAK","updated_at":"2026-09-22T09:00:49.349305Z"}}